Regional Weather Roundup
Issued by NWS

Home | Current Version | Previous Version | Graphics & Text | Print | Product List | Glossary On
Versions: 1 2 3 4 5 6 7 8 9 10 11 12 13 14 15 16 17 18 19 20 21 22 23 24 25 26 27 28 29 30 31 32 33 34 35 36 37 38 39 40 41 42 43 44 45 46 47 48 49 50
270
ASUS45 KBOU 041507
RWRCO

WEATHER ROUNDUP FOR COLORADO
NATIONAL WEATHER SERVICE DENVER/BOULDER CO
800 AM MST SUN DEC 04 2016

NOTE: "FAIR" INDICATES FEW OR NO CLOUDS BELOW 12000 FEET WITH NO
SIGNIFICANT WEATHER AND/OR OBSTRUCTIONS TO VISIBILITY.

COZ001>005-013-030-031-041600-
...NORTHWEST COLORADO...

CITY           SKY/WX    TMP DP  RH WIND       PRES   REMARKS
CRAIG          MOCLDY    10   5  80 CALM      30.19S
HAYDEN         FAIR      12   3  67 SE6       30.17R WCI   3
MEEKER         FAIR       5   0  79 CALM      30.20R
MOUNT WERNER   NOT AVBL
STEAMBOAT SPGS CLOUDY    10   8  89 E5        30.17R WCI   2
WALDEN           N/A     18   7  62 S13G18    30.07S WCI   4
$$

COZ006>008-011-041600-
...WEST CENTRAL VALLEYS...

CITY           SKY/WX    TMP DP  RH WIND       PRES   REMARKS
GRAND JUNCTION FAIR      20  15  81 SE9       30.24R WCI   9
MONTROSE       FAIR      16   9  74 S7        30.27R WCI   6
EAGLE          CLEAR      5   0  78 CALM      30.27R
RIFLE          FAIR      13   9  84 CALM      30.27R
DELTA          FAIR      22  15  74 CALM      30.27R
NUCLA          FAIR      16   9  73 CALM      30.26R
$$

COZ017>023-064>068-041600-
...SOUTHWEST COLORADO...

CITY           SKY/WX    TMP DP  RH WIND       PRES   REMARKS
DURANGO        CLOUDY    19  15  84 CALM      30.18R
CORTEZ         FAIR      14  10  84 CALM      30.20R
PAGOSA SPRINGS FAIR      10   8  92 CALM      30.18R
TELLURIDE      FAIR      19   5  54 SE7       30.18R WCI  10
WOLF CREEK PAS FAIR      21   1  42 W6        30.19S WCI  14
$$

COZ009-010-012-014-032>034-037-058>063-041600-
...CENTRAL COLORADO...

CITY           SKY/WX    TMP DP  RH WIND       PRES   REMARKS
ASPEN          FAIR       5   0  79 SW3       30.15F
BUENA VISTA    FAIR       8   2  74 CALM      30.10R
COPPER MTN     FAIR      16  -4  41 MISG      30.07R
BERTHOUD PASS  FAIR       5  -8  56 NW30      29.99R WCI -19
COTTONWOOD PAS FAIR      28  -2  26 NW7G21    30.06R WCI  21
GUNNISON       FAIR       0  -5  79 CALM      30.27R
KREMMLING      FAIR       9   3  78 CALM      30.20R
LEADVILLE      FAIR       8  -8  48 N8        30.10R WCI  -4
MONARCH PASS     N/A      7   3  85 W33G41    30.17R WCI -18
SALIDA         FAIR      20   5  52 N10       30.17R WCI   8
SUNLIGHT       FAIR      10   7  85 SW10G16   30.16R WCI  -3
WILKERSON PASS FAIR      16  -6  38 NW7       30.06S WCI   6
$$

COZ069>075-041600-
...SAN LUIS VALLEY/SANGRE DE CRISTO MOUNTAINS...

CITY           SKY/WX    TMP DP  RH WIND       PRES   REMARKS
ALAMOSA        FAIR       2  -2  83 CALM      30.17R
LA VETA PASS   FAIR      12   3  67 NE32G39   30.05S WCI -10
SAGUACHE       FAIR      14   5  67 CALM      30.18R
$$

COZ035-036-038>040-041600-
...NORTHERN COLORADO FRONT RANGE...

CITY           SKY/WX    TMP DP  RH WIND       PRES   REMARKS
DENVER INTL AP FAIR      21   8  57 S12       29.99F WCI   9
DMNS CITY PARK   N/A     25   5  42 SE12G17   30.00S WCI  14
AURORA         PTCLDY    24   6  46 S12       30.00S WCI  13
FRONT RANGE AP NOT AVBL
ERIE MUNI ARPT FAIR      25   9  50 SW3       29.99S
BOULDER MUN AP FAIR      27  10  50 CALM      29.98F
CENTENNIAL     FAIR      25   5  42 S9        29.99F WCI  15
BROOMFIELD     PTCLDY    28   7  40 SW8       29.99S WCI  20
FORT COLLINS   FAIR      16  12  86 CALM      30.01R
LONGMONT       FAIR      20  12  73 CALM      30.02R
$$

COZ041-046-047-076>085-087-088-041600-
...PIKES PEAK/PALMER DIVIDE AND SOUTHERN FOOTHILLS...

CITY           SKY/WX    TMP DP  RH WIND       PRES   REMARKS
COLO. SPRINGS  FAIR      20   9  62 CALM      30.05R
A. F. ACADEMY  FAIR      15   7  70 VRB3      30.03R
SCHRIEVER AFB  NOT AVBL
ELLICOTT       FAIR     N/A N/A N/A E3          N/A
FALCON         FAIR      22  13  68 W3        30.03F
FORT CARSON    FAIR      21   8  57 NW7       30.04R WCI  12
LIMON          FAIR      14   9  80 N3        30.05S
MONUMENT HILL  FAIR      23   9  54 SW8       30.02R WCI  14
TRINIDAD       FAIR      24  11  57 SW10      30.07R WCI  14
$$

COZ042>045-048>051-090-091-041600-
...NORTHEAST COLORADO...

CITY           SKY/WX    TMP DP  RH WIND       PRES   REMARKS
GREELEY ARPT   FAIR      14  10  84 CALM      30.03S
AKRON          FAIR      24  10  55 SW8       30.03R WCI  15
BURLINGTON     FAIR      22  12  65 W9        30.06R WCI  12
WRAY           NOT AVBL
STERLING       FAIR      18  12  79 SW6       30.03R WCI   9
HOLYOKE        FAIR      27  14  59 W9        30.03S WCI  17
FORT MORGAN    FAIR      17   9  73 W5        30.05R WCI   9
$$

COZ086-089-092>099-041600-
...SOUTHEAST COLORADO...

CITY           SKY/WX    TMP DP  RH WIND       PRES   REMARKS
PUEBLO         FAIR      17  11  77 SW3       30.09R
LA JUNTA       FAIR      20  15  81 W7        30.11R WCI  11
LAMAR          FAIR      20  17  88 W8        30.11  WCI  10
SPRINGFIELD      N/A     21  18  88 W3        30.09S
$$




USA.gov is the U.S. government's official web portal to all federal, state and local government web resources and services.